Time,TemperatureF,DewpointF,PressureIn,WindDirection,WindDirectionDegrees,WindSpeedMPH,WindSpeedGustMPH,Humidity,HourlyPrecipIn,Conditions,Clouds,dailyrainin,SoftwareType,DateUTC
2013-01-10 00:06:00,72.5,69.0,30.25,ESE,117,3.0,9.0,89,0.00,,,0.00,weatherlink.com 1.10,2013-01-10 05:06:00,
2013-01-10 00:22:00,72.6,69.0,30.24,ESE,113,5.0,9.0,89,0.00,,,0.00,weatherlink.com 1.10,2013-01-10 05:22:00,
2013-01-10 00:51:00,72.8,70.0,30.24,ESE,122,2.0,9.0,89,0.00,,,0.00,weatherlink.com 1.10,2013-01-10 05:51:00,
2013-01-10 01:06:00,72.6,69.0,30.24,SSE,149,5.0,9.0,89,0.00,,,0.00,weatherlink.com 1.10,2013-01-10 06:06:00,
2013-01-10 01:21:00,72.6,69.0,30.24,SE,137,3.0,8.0,89,0.00,,,0.00,weatherlink.com 1.10,2013-01-10 06:21:00,
2013-01-10 01:36:00,72.5,69.0,30.24,ESE,115,3.0,7.0,89,0.00,,,0.00,weatherlink.com 1.10,2013-01-10 06:36:00,
2013-01-10 01:52:00,72.5,69.0,30.24,ESE,117,2.0,7.0,89,0.00,,,0.00,weatherlink.com 1.10,2013-01-10 06:52:00,
2013-01-10 02:07:00,72.5,69.0,30.24,SSE,153,3.0,6.0,89,0.00,,,0.00,weatherlink.com 1.10,2013-01-10 07:07:00,
2013-01-10 02:22:00,72.4,69.0,30.24,ESE,110,3.0,7.0,89,0.00,,,0.00,weatherlink.com 1.10,2013-01-10 07:22:00,
2013-01-10 02:37:00,72.2,69.0,30.24,SE,145,4.0,6.0,90,0.00,,,0.00,weatherlink.com 1.10,2013-01-10 07:37:00,
2013-01-10 02:52:00,72.1,69.0,30.24,SE,146,2.0,4.0,90,0.00,,,0.00,weatherlink.com 1.10,2013-01-10 07:52:00,
2013-01-10 03:07:00,71.9,69.0,30.24,ESE,121,2.0,5.0,90,0.00,,,0.00,weatherlink.com 1.10,2013-01-10 08:07:00,
2013-01-10 03:22:00,71.8,69.0,30.24,SE,127,1.0,6.0,90,0.00,,,0.00,weatherlink.com 1.10,2013-01-10 08:22:00,
2013-01-10 03:37:00,71.5,69.0,30.24,SE,132,3.0,6.0,91,0.00,,,0.00,weatherlink.com 1.10,2013-01-10 08:37:00,
2013-01-10 03:53:00,71.1,68.0,30.24,ENE,66,2.0,7.0,91,0.00,,,0.00,weatherlink.com 1.10,2013-01-10 08:53:00,
2013-01-10 04:08:00,70.7,68.0,30.23,ESE,123,4.0,7.0,91,0.00,,,0.00,weatherlink.com 1.10,2013-01-10 09:08:00,
2013-01-10 04:23:00,70.5,68.0,30.23,ESE,111,5.0,7.0,92,0.00,,,0.00,weatherlink.com 1.10,2013-01-10 09:23:00,
2013-01-10 04:39:00,70.3,68.0,30.23,ESE,119,3.0,7.0,92,0.00,,,0.00,weatherlink.com 1.10,2013-01-10 09:39:00,
2013-01-10 04:54:00,70.1,68.0,30.23,East,101,2.0,7.0,92,0.00,,,0.00,weatherlink.com 1.10,2013-01-10 09:54:00,
2013-01-10 05:08:00,70.0,68.0,30.23,ESE,103,2.0,5.0,92,0.00,,,0.00,weatherlink.com 1.10,2013-01-10 10:08:00,
2013-01-10 05:23:00,69.9,68.0,30.24,East,101,3.0,5.0,92,0.00,,,0.00,weatherlink.com 1.10,2013-01-10 10:23:00,
2013-01-10 05:38:00,69.9,68.0,30.24,SE,132,3.0,7.0,92,0.00,,,0.00,weatherlink.com 1.10,2013-01-10 10:38:00,
2013-01-10 05:53:00,69.8,67.0,30.24,SE,144,3.0,5.0,92,0.00,,,0.00,weatherlink.com 1.10,2013-01-10 10:53:00,
2013-01-10 06:09:00,69.5,67.0,30.24,SE,124,2.0,4.0,92,0.00,,,0.00,weatherlink.com 1.10,2013-01-10 11:09:00,
2013-01-10 06:24:00,69.3,67.0,30.24,ESE,119,1.0,4.0,92,0.00,,,0.00,weatherlink.com 1.10,2013-01-10 11:24:00,
2013-01-10 06:39:00,69.1,67.0,30.24,SE,124,2.0,7.0,92,0.00,,,0.00,weatherlink.com 1.10,2013-01-10 11:39:00,
2013-01-10 06:54:00,69.0,67.0,30.24,SSE,150,2.0,5.0,93,0.00,,,0.00,weatherlink.com 1.10,2013-01-10 11:54:00,
2013-01-10 07:09:00,68.8,67.0,30.24,SE,127,3.0,5.0,93,0.00,,,0.00,weatherlink.com 1.10,2013-01-10 12:09:00,
2013-01-10 07:24:00,68.7,67.0,30.25,SE,127,2.0,4.0,93,0.00,,,0.00,weatherlink.com 1.10,2013-01-10 12:24:00,
2013-01-10 07:39:00,68.9,67.0,30.25,ESE,107,3.0,6.0,93,0.00,,,0.00,weatherlink.com 1.10,2013-01-10 12:39:00,
2013-01-10 07:54:00,69.6,68.0,30.25,ESE,111,5.0,7.0,93,0.00,,,0.00,weatherlink.com 1.10,2013-01-10 12:54:00,
2013-01-10 08:10:00,70.3,68.0,30.25,ESE,117,5.0,9.0,91,0.00,,,0.00,weatherlink.com 1.10,2013-01-10 13:10:00,
2013-01-10 08:25:00,71.3,68.0,30.25,ESE,108,7.0,9.0,89,0.00,,,0.00,weatherlink.com 1.10,2013-01-10 13:25:00,
2013-01-10 08:40:00,72.1,68.0,30.26,ESE,113,7.0,9.0,87,0.00,,,0.00,weatherlink.com 1.10,2013-01-10 13:40:00,
2013-01-10 08:55:00,73.0,69.0,30.26,SE,128,5.0,7.0,86,0.00,,,0.00,weatherlink.com 1.10,2013-01-10 13:55:00,
2013-01-10 09:10:00,73.8,69.0,30.27,ESE,120,4.0,6.0,84,0.00,,,0.00,weatherlink.com 1.10,2013-01-10 14:10:00,
2013-01-10 09:25:00,74.4,69.0,30.27,ESE,119,2.0,8.0,84,0.00,,,0.00,weatherlink.com 1.10,2013-01-10 14:25:00,
2013-01-10 09:40:00,75.0,69.0,30.26,ESE,110,5.0,11.0,81,0.00,,,0.00,weatherlink.com 1.10,2013-01-10 14:40:00,
2013-01-10 09:56:00,75.7,68.0,30.25,SSE,150,10.0,13.0,78,0.00,,,0.00,weatherlink.com 1.10,2013-01-10 14:56:00,
2013-01-10 10:11:00,76.6,68.0,30.25,SE,139,6.0,14.0,74,0.00,,,0.00,weatherlink.com 1.10,2013-01-10 15:11:00,
2013-01-10 10:26:00,77.2,68.0,30.24,SSE,147,8.0,13.0,73,0.00,,,0.00,weatherlink.com 1.10,2013-01-10 15:26:00,
2013-01-10 10:41:00,77.8,67.0,30.23,ESE,107,7.0,13.0,70,0.00,,,0.00,weatherlink.com 1.10,2013-01-10 15:41:00,
2013-01-10 10:56:00,78.1,66.0,30.22,East,96,14.0,14.0,66,0.00,,,0.00,weatherlink.com 1.10,2013-01-10 15:56:00,
2013-01-10 11:12:00,78.4,66.0,30.21,SE,141,8.0,16.0,65,0.00,,,0.00,weatherlink.com 1.10,2013-01-10 16:12:00,
2013-01-10 11:27:00,79.0,66.0,30.20,SE,138,6.0,13.0,64,0.00,,,0.00,weatherlink.com 1.10,2013-01-10 16:27:00,
2013-01-10 11:41:00,79.0,66.0,30.19,SE,146,4.0,11.0,64,0.00,,,0.00,weatherlink.com 1.10,2013-01-10 16:41:00,
2013-01-10 11:57:00,79.2,65.0,30.18,SE,129,6.0,16.0,61,0.00,,,0.00,weatherlink.com 1.10,2013-01-10 16:57:00,
2013-01-10 12:12:00,79.6,64.0,30.17,SE,144,9.0,13.0,60,0.00,,,0.00,weatherlink.com 1.10,2013-01-10 17:12:00,
2013-01-10 12:27:00,79.9,64.0,30.16,SE,129,6.0,12.0,59,0.00,,,0.00,weatherlink.com 1.10,2013-01-10 17:27:00,
2013-01-10 12:42:00,80.4,66.0,30.16,ESE,107,5.0,10.0,61,0.00,,,0.00,weatherlink.com 1.10,2013-01-10 17:42:00,
2013-01-10 12:58:00,80.4,65.0,30.16,ESE,117,9.0,12.0,59,0.00,,,0.00,weatherlink.com 1.10,2013-01-10 17:58:00,
2013-01-10 13:13:00,80.4,64.0,30.16,SSE,153,6.0,11.0,57,0.00,,,0.00,weatherlink.com 1.10,2013-01-10 18:13:00,
2013-01-10 13:28:00,80.6,63.0,30.16,SE,144,6.0,10.0,56,0.00,,,0.00,weatherlink.com 1.10,2013-01-10 18:28:00,
2013-01-10 13:42:00,81.4,65.0,30.16,SSE,148,3.0,9.0,58,0.00,,,0.00,weatherlink.com 1.10,2013-01-10 18:42:00,
2013-01-10 13:58:00,80.2,64.0,30.16,SSE,148,4.0,8.0,59,0.00,,,0.00,weatherlink.com 1.10,2013-01-10 18:58:00,
2013-01-10 14:13:00,81.2,64.0,30.17,ESE,107,7.0,11.0,56,0.00,,,0.00,weatherlink.com 1.10,2013-01-10 19:13:00,
2013-01-10 14:28:00,81.3,66.0,30.16,SE,142,4.0,9.0,59,0.00,,,0.00,weatherlink.com 1.10,2013-01-10 19:28:00,
2013-01-10 14:43:00,82.0,64.0,30.17,SE,138,4.0,7.0,54,0.00,,,0.00,weatherlink.com 1.10,2013-01-10 19:43:00,
2013-01-10 15:13:00,80.9,66.0,30.18,SE,136,1.0,8.0,60,0.00,,,0.00,weatherlink.com 1.10,2013-01-10 20:13:00,
2013-01-10 15:28:00,81.7,65.0,30.18,SE,135,2.0,8.0,57,0.00,,,0.00,weatherlink.com 1.10,2013-01-10 20:28:00,
2013-01-10 15:44:00,81.8,65.0,30.18,SSE,159,2.0,7.0,57,0.00,,,0.00,weatherlink.com 1.10,2013-01-10 20:44:00,
2013-01-10 15:59:00,81.1,64.0,30.18,SE,129,3.0,8.0,57,0.00,,,0.00,weatherlink.com 1.10,2013-01-10 20:59:00,
2013-01-10 16:14:00,81.0,65.0,30.19,ESE,112,4.0,10.0,59,0.00,,,0.00,weatherlink.com 1.10,2013-01-10 21:14:00,
2013-01-10 16:44:00,79.5,68.0,30.20,West,267,1.0,5.0,68,0.00,,,0.00,weatherlink.com 1.10,2013-01-10 21:44:00,
2013-01-10 16:59:00,78.5,68.0,30.20,WSW,252,2.0,7.0,70,0.00,,,0.00,weatherlink.com 1.10,2013-01-10 21:59:00,
2013-01-10 17:14:00,77.8,67.0,30.21,SSE,165,0.0,5.0,69,0.00,,,0.00,weatherlink.com 1.10,2013-01-10 22:14:00,
2013-01-10 17:29:00,77.1,66.0,30.20,SSE,165,0.0,3.0,69,0.00,,,0.00,weatherlink.com 1.10,2013-01-10 22:29:00,
2013-01-10 17:45:00,76.7,65.0,30.20,SE,141,0.0,3.0,67,0.00,,,0.00,weatherlink.com 1.10,2013-01-10 22:45:00,
2013-01-10 18:15:00,76.3,65.0,30.20,SE,141,2.0,4.0,67,0.00,,,0.00,weatherlink.com 1.10,2013-01-10 23:15:00,
2013-01-10 18:30:00,75.8,64.0,30.20,SE,133,2.0,4.0,68,0.00,,,0.00,weatherlink.com 1.10,2013-01-10 23:30:00,
2013-01-10 18:45:00,75.2,65.0,30.21,SE,133,2.0,3.0,70,0.00,,,0.00,weatherlink.com 1.10,2013-01-10 23:45:00,
2013-01-10 19:00:00,74.8,65.0,30.21,SE,126,2.0,5.0,71,0.00,,,0.00,weatherlink.com 1.10,2013-01-11 00:00:00,
2013-01-10 19:16:00,74.5,65.0,30.21,ESE,107,4.0,8.0,71,0.00,,,0.00,weatherlink.com 1.10,2013-01-11 00:16:00,
2013-01-10 19:31:00,74.3,65.0,30.21,ESE,122,3.0,10.0,72,0.00,,,0.00,weatherlink.com 1.10,2013-01-11 00:31:00,
2013-01-10 19:46:00,74.0,64.0,30.22,ESE,115,5.0,9.0,72,0.00,,,0.00,weatherlink.com 1.10,2013-01-11 00:46:00,
2013-01-10 20:01:00,73.8,65.0,30.22,SE,132,5.0,9.0,73,0.00,,,0.00,weatherlink.com 1.10,2013-01-11 01:01:00,
2013-01-10 20:16:00,73.5,65.0,30.22,ESE,107,7.0,9.0,74,0.00,,,0.00,weatherlink.com 1.10,2013-01-11 01:16:00,
2013-01-10 20:47:00,72.8,65.0,30.22,SE,142,1.0,6.0,76,0.00,,,0.00,weatherlink.com 1.10,2013-01-11 01:47:00,
2013-01-10 21:01:00,72.6,65.0,30.23,ESE,118,2.0,7.0,77,0.00,,,0.00,weatherlink.com 1.10,2013-01-11 02:01:00,
2013-01-10 21:16:00,72.3,65.0,30.23,ESE,120,3.0,7.0,78,0.00,,,0.00,weatherlink.com 1.10,2013-01-11 02:16:00,
2013-01-10 21:31:00,72.1,65.0,30.23,ESE,104,2.0,10.0,79,0.00,,,0.00,weatherlink.com 1.10,2013-01-11 02:31:00,
2013-01-10 21:46:00,71.9,65.0,30.23,SE,144,2.0,11.0,80,0.00,,,0.00,weatherlink.com 1.10,2013-01-11 02:46:00,
2013-01-10 22:01:00,71.2,66.0,30.23,ESE,104,3.0,5.0,82,0.00,,,0.00,weatherlink.com 1.10,2013-01-11 03:01:00,
2013-01-10 22:16:00,70.7,65.0,30.24,ESE,121,3.0,7.0,83,0.00,,,0.00,weatherlink.com 1.10,2013-01-11 03:16:00,
2013-01-10 22:31:00,70.2,65.0,30.24,ESE,114,3.0,8.0,84,0.00,,,0.00,weatherlink.com 1.10,2013-01-11 03:31:00,
2013-01-10 22:47:00,69.9,65.0,30.24,ESE,102,1.0,8.0,85,0.00,,,0.00,weatherlink.com 1.10,2013-01-11 03:47:00,
2013-01-10 23:01:00,69.8,65.0,30.24,ESE,111,1.0,7.0,85,0.00,,,0.00,weatherlink.com 1.10,2013-01-11 04:01:00,
2013-01-10 23:16:00,69.7,65.0,30.24,SE,133,4.0,7.0,86,0.00,,,0.00,weatherlink.com 1.10,2013-01-11 04:16:00,
2013-01-10 23:31:00,69.4,65.0,30.24,ESE,121,4.0,5.0,87,0.00,,,0.00,weatherlink.com 1.10,2013-01-11 04:31:00,
2013-01-10 23:47:00,69.3,65.0,30.25,ESE,121,2.0,4.0,87,0.00,,,0.00,weatherlink.com 1.10,2013-01-11 04:47:00,